ONEWEB-0056, 45159

Orbit data source: Space-Track

ONEWEB-0056, 45159 is a payload satellite owned by One Web (UK) in LEO that was launched on Thu, 06 Feb 2020 UTC via a SOYUZ-2-1B launch vehicle from the Tyuratam Missile And Space Complex (TTMTR). Payloads include a variety of satellites, spacecraft, and rockets equipped with specific instruments for various scientific and technological missions. These include communications satellites like Starlink; space stations such as the ISS; scientific satellites like the Hubble; Earth observation satellites from companies like Planet Labs, Umbra, and HawkEye 360; GPS; miniature CubeSats for education and research; and military/defense satellites.

Loading next visibility...
ONEWEB-0056 details
Identifier
45159, 2020-008AE
Orbit
LEO
Last TLE update1 day ago
Origin
Flag of UKOne Web (UK)
ManufacturerOne Web
MissionOperational Commercial Communications
Bus & MotorARROW, Unknown motor
Mass148 kg wet, ~140 kg dry
Launch date (UTC)
2020-02-06 (5 years ago)
Launch vehicle
SOYUZ-2-1B
Launch site
Tyuratam Missile And Space Complex (TTMTR)
Object type
Payload
Rocket body
Debris
Shape & HBRTrap Box + 2 Pan, 5 m
Radar Cross Section2.957 m², Large (>1 m²)

Expand to show TLE details & history

TLE from 1 day ago
0 ONEWEB-0056
1 45159U 20008AE  24360.43865585 -.00000505  00000-0 -14838-2 0  9991
2 45159  87.8900 143.5795 0001530  95.8876 264.2425 13.10376489237621
Epoch: 2024-12-25T10:31Z
Definitive object data (Epoch: 2024-12-25T10:31:39.865Z)
Latitude-0.0001°
Longitude-108.769°
Altitude1,224.707 km
Speed7.242 km/s
True Right ascension09h 34m 19s
True Declination0° 00' 00"
Sunlit
Object was in full shadow at TLE epoch
Visualization TLE readout
Latitude5.24359°
Longitude-108.77338°
Altitude1,224.025 km
Speed7.243 km/s
Apparent Right ascension09h 16m 52s
Apparent Declination-51° 32' 56"
Sunlit
Object is in full shadow
Visualization observer readout
Local Sidereal Time09:43:50
Azimuth184.188° SSW
Elevation-1.654°
Doppler factor1
Orbital elements
Apogee altitude1,219.985 km
Perigee altitude1,217.66 km
Semi-major axis7,596.96 km
Eccentricity0.000153
Inclination87.89°
RAAN143.5795°
Arg. of periapsis95.8876°
True anomaly264.22506°
Mean anomaly264.2425°
Eccentric anomaly264.23378°
Mean motion3.27781 °/min
BSTAR-0.0014838
Orbital period109.83 mins
Loading maneuver chart data...
Loading historical data...
Loading historical data...
Loading historical data...
Loading historical data...
Loading historical data...
Loading historical data...
Loading historical data...

ONEWEB-0056 Visibility forecast

Observer location: undefined°, undefined

Span
Click to sort rows by Start time (UTC) header in descending order
Start Az.
Max El. time (UTC)
Max El. Az.
Max El.
End time (UTC)
End Az.
13 mins2024-12-26 10:26:40.012Z187.43° SSW2024-12-26 10:33:40.012Z298.944° NW43.542°2024-12-26 10:39:40.012Z355.883° N
6 mins2024-12-26 20:09:40.012Z46.467° ENE2024-12-26 20:12:40.012Z72.737° E14.666°2024-12-26 20:15:40.012Z98.731° ESE
13 mins2024-12-26 21:57:40.012Z359.339° N2024-12-26 22:03:40.012Z193.808° SSW44.966°2024-12-26 22:10:40.012Z181.898° SSW
5 mins2024-12-26 23:50:40.012Z304.437° NW2024-12-26 23:52:40.012Z286.439° WNW14.44°2024-12-26 23:55:40.012Z261.082° W
7 mins2024-12-27 08:30:40.012Z99.773° ESE2024-12-27 08:33:40.012Z72.179° E16.753°2024-12-27 08:37:40.012Z37.459° NE
6 mins2024-12-27 10:16:40.012Z184.131° SSW2024-12-27 10:22:40.012Z272.674° WNW44.608°2024-12-27 10:22:40.012Z272.674° WNW
|